{"data":{"norad_id":40336,"intl_designator":"2014-079A","name":"CBERS 4","alt_names":[],"object_type":"PAYLOAD","status":"ACTIVE","operator":null,"country":"CHBZ","launch_date":"2014-12-07","launch_site_code":"TAISC","launch_vehicle":null,"mission":null,"orbit_class":"UNKNOWN","rcs_meters":3.7804,"size_class":null,"mass_kg":null,"dimensions":null,"purposes":["earth_obs"],"wikipedia_slug":null,"has_3d_model":false,"image_url":null,"decayed_at":null,"tle_current":{"epoch":"2026-09-20T04:18:53.708256Z","epoch_age_seconds":42047,"freshness":"FRESH","line1":"1 40336U 14079A   26263.17978829  .00000088  00000+0  45207-4 0  9994","line2":"2 40336  98.3434 316.9840 0002000  91.9138 268.2277 14.35514770617581","mean_motion":14.3551477,"eccentricity":0.0002,"inclination_deg":98.3434,"raan_deg":316.984,"arg_perigee_deg":91.9138,"mean_anomaly_deg":268.2277,"bstar":4.5207e-5,"rev_number":61758,"period_min":100.31244749923,"perigee_km":771.92591931647,"apogee_km":774.7865166036499,"semimajor_km":7151.4932179601,"source":"CELESTRAK","updated_at":"2026-09-20T09:00:33.962998Z"}}}